COSMOS 2251 DEB, 34683

Orbit data source: Space-Track

COSMOS 2251 DEB, 34683 is space debris in LEO originally from a launch on Wed, 16 Jun 1993 UTC launched from the Plesetsk Missile And Space Complex (PKMTR). The debris from Iridium 33, an American commercial communications satellite, has been tracked extensively since its accidental collision with the defunct Russian satellite Cosmos 2251 in 2009. This event, occurring at high speed in low Earth orbit (LEO), generated thousands of pieces of space debris, significantly increasing the risk of further collisions. The Iridium 33 debris cloud has impacted space traffic management and orbital debris mitigation strategies, making it a subject of ongoing study in space situational awareness.

Loading next visibility...
Identifier
34683, 1993-036YD
Orbit
LEO
Country
Flag of CISCIS
Related business
Manufacturer
Unknown
Mission
Spacecraft
Bus & Motor
Unknown
Mass
Unknown
Launch date (UTC)
1993-06-16 (33 years ago)
Launch vehicle
Unknown
Launch site
Plesetsk Missile And Space Complex (PKMTR)
Object type
Payload
Rocket body
Debris
Shape & HBR
Unknown shape, 0.1 m
Radar Cross Section
Small (<0.1 m²)

Expand to show TLE details & history
Last TLE update: 21 hours ago

TLE from 21 hours ago
0 COSMOS 2251 DEB
1 34683U 93036YD  26145.43210289  .00003807  00000-0  69230-3 0  9993
2 34683  74.0265 136.9782 0019724 212.1036 300.0355 14.66368633907462
Epoch: 2026-05-25T10:22Z
TLE epoch observation values (Epoch: 2026-05-25T10:22:13.689Z)
Latitude
26.9294°
Longitude
-89.9141°
Altitude
668.745 km
Speed
7.529 km/s
True Right ascension
20h 34m 39s
True Declination
26° 47' 21"
Sunlit
Object was in daylight at epoch
Visualization orbit readout
Latitude
Unknown
Longitude
Unknown
Altitude
Unknown
Speed
Unknown
Apparent Right ascension
Unknown
Apparent Declination
Unknown
Sunlit
N/A
Visualization observer readout
Local Sidereal Time
16:21:04
Azimuth
Unknown
Elevation
Unknown
Doppler factor
Unknown
Orbital elements
Apogee altitude
684.178 km
Perigee altitude
656.374 km
Semi-major axis
7,048.413 km
Eccentricity
0.00197
Inclination
74.0265°
RAAN
136.9782°
Arg. of periapsis
212.1036°
True anomaly
299.83959°
Mean anomaly
300.0355°
Eccentric anomaly
299.93757°
Mean motion
3.6678 °/min
Orbital period
98.15 mins
BSTAR
0.0006923
Loading maneuver chart data...
Computing Atmospheric mass density...

Documentation

Showing up to 5 results
|